When you browse on this site, cookies collect data to enhance your experience and personalize the content and advertising you see.
Visit our Privacy Policy to learn more. By continuing to use the site, you agree to this use of cookies and data.
  • In Deutschland
  • Länderverzeichnis
  • Für 7 Tage
  • Wassertemperatur
  • Satellitenkarten
  • Wetterkarte
  • Widgets
  • user-avatar
    Anmelden

    Stündliche Wetter Grabal

    Heute, 23 Mai, Donnerstag

    Zeit Temperatur Niederschläge Wind Luftdruck Luftfeuchtigkeit
    00:00 +14°C° 0 mm 1 m/S 746 mmHg 90%
    01:00 +13°C° 0 mm 2 m/S 746 mmHg 92%
    02:00 +13°C° 0 mm 2 m/S 746 mmHg 93%
    03:00 +12°C° 0 mm 3 m/S 747 mmHg 95%
    04:00 +12°C° 0 mm 3 m/S 747 mmHg 97%
    05:00 +13°C° 0.2 mm 3 m/S 747 mmHg 95%
    06:00 +13°C° 0.2 mm 3 m/S 747 mmHg 94%
    07:00 +14°C° 0.2 mm 4 m/S 748 mmHg 92%
    08:00 +14°C° 0 mm 4 m/S 748 mmHg 91%
    09:00 +15°C° 0 mm 4 m/S 748 mmHg 90%
    10:00 +15°C° 0 mm 4 m/S 748 mmHg 89%
    11:00 +15°C° 0 mm 5 m/S 748 mmHg 86%
    12:00 +16°C° 0 mm 5 m/S 748 mmHg 84%
    13:00 +16°C° 0 mm 5 m/S 748 mmHg 82%
    14:00 +16°C° 0 mm 5 m/S 749 mmHg 83%
    15:00 +15°C° 0 mm 6 m/S 749 mmHg 84%
    16:00 +15°C° 0 mm 6 m/S 749 mmHg 84%
    17:00 +14°C° 0 mm 6 m/S 749 mmHg 85%
    18:00 +13°C° 0 mm 5 m/S 749 mmHg 85%
    19:00 +13°C° 0 mm 4 m/S 749 mmHg 85%
    20:00 +12°C° 0 mm 4 m/S 749 mmHg 86%
    21:00 +11°C° 0 mm 3 m/S 750 mmHg 88%
    22:00 +10°C° 0 mm 2 m/S 750 mmHg 89%
    23:00 +9°C° 0 mm 2 m/S 750 mmHg 87%

    Morgen, 24 Mai, Freitag

    Zeit Temperatur Niederschläge Wind Luftdruck Luftfeuchtigkeit
    00:00 +9°C° 0 mm 3 m/S 750 mmHg 86%
    01:00 +9°C° 0 mm 3 m/S 750 mmHg 84%
    02:00 +8°C° 0 mm 3 m/S 750 mmHg 85%
    03:00 +8°C° 0 mm 3 m/S 750 mmHg 85%
    04:00 +8°C° 0 mm 3 m/S 750 mmHg 86%
    05:00 +10°C° 0 mm 3 m/S 750 mmHg 84%
    06:00 +11°C° 0 mm 3 m/S 750 mmHg 83%
    07:00 +12°C° 0 mm 3 m/S 750 mmHg 81%
    08:00 +14°C° 0 mm 3 m/S 750 mmHg 75%
    09:00 +17°C° 0 mm 3 m/S 750 mmHg 69%
    10:00 +18°C° 0 mm 3 m/S 750 mmHg 62%
    11:00 +19°C° 0 mm 3 m/S 750 mmHg 60%
    12:00 +20°C° 0 mm 3 m/S 749 mmHg 57%
    13:00 +20°C° 0 mm 3 m/S 749 mmHg 54%
    14:00 +20°C° 0 mm 3 m/S 749 mmHg 54%
    15:00 +20°C° 0 mm 2 m/S 749 mmHg 55%
    16:00 +20°C° 0 mm 2 m/S 748 mmHg 55%
    17:00 +19°C° 0 mm 2 m/S 748 mmHg 61%
    18:00 +19°C° 0 mm 1 m/S 748 mmHg 66%
    19:00 +18°C° 0 mm 1 m/S 748 mmHg 72%
    20:00 +16°C° 0 mm 1 m/S 748 mmHg 75%
    21:00 +15°C° 0 mm 1 m/S 748 mmHg 78%
    22:00 +14°C° 0 mm 1 m/S 748 mmHg 81%
    23:00 +13°C° 0 mm 1 m/S 748 mmHg 84%

    übermorgen, 25 Mai, Samstag

    Zeit Temperatur Niederschläge Wind Luftdruck Luftfeuchtigkeit
    00:00 +13°C° 0 mm 2 m/S 747 mmHg 86%
    01:00 +12°C° 0 mm 2 m/S 747 mmHg 88%
    02:00 +12°C° 0 mm 2 m/S 747 mmHg 87%
    03:00 +12°C° 0 mm 2 m/S 747 mmHg 87%
    04:00 +11°C° 0 mm 3 m/S 747 mmHg 86%
    05:00 +12°C° 0 mm 3 m/S 747 mmHg 82%
    06:00 +13°C° 0 mm 3 m/S 747 mmHg 78%
    07:00 +14°C° 0 mm 4 m/S 747 mmHg 74%
    08:00 +17°C° 0 mm 4 m/S 747 mmHg 72%
    09:00 +17°C° 0 mm 5 m/S 747 mmHg 71%
    10:00 +19°C° 0 mm 5 m/S 747 mmHg 69%
    11:00 +19°C° 0 mm 6 m/S 747 mmHg 66%
    12:00 +19°C° 0 mm 6 m/S 747 mmHg 62%
    13:00 +20°C° 0 mm 7 m/S 747 mmHg 58%
    14:00 +19°C° 0 mm 6 m/S 747 mmHg 60%
    15:00 +19°C° 0 mm 6 m/S 746 mmHg 61%
    16:00 +17°C° 0 mm 6 m/S 746 mmHg 63%
    17:00 +16°C° 0 mm 5 m/S 746 mmHg 69%
    18:00 +15°C° 0 mm 4 m/S 746 mmHg 74%
    19:00 +14°C° 0 mm 2 m/S 746 mmHg 79%
    20:00 +12°C° 0 mm 3 m/S 746 mmHg 81%
    21:00 +12°C° 0 mm 3 m/S 746 mmHg 82%
    22:00 +11°C° 0 mm 3 m/S 747 mmHg 84%
    23:00 +10°C° 0 mm 3 m/S 746 mmHg 85%

    26 Mai, Sonntag

    Zeit Temperatur Niederschläge Wind Luftdruck Luftfeuchtigkeit
    00:00 +10°C° 0 mm 3 m/S 746 mmHg 85%
    01:00 +10°C° 0 mm 4 m/S 746 mmHg 86%
    02:00 +10°C° 0 mm 4 m/S 745 mmHg 87%
    03:00 +9°C° 0 mm 5 m/S 745 mmHg 88%
    04:00 +9°C° 0 mm 5 m/S 745 mmHg 90%
    05:00 +9°C° 0.1 mm 5 m/S 745 mmHg 88%
    06:00 +9°C° 0.1 mm 6 m/S 745 mmHg 86%
    07:00 +9°C° 0.1 mm 6 m/S 745 mmHg 85%
    08:00 +9°C° 0.6 mm 6 m/S 745 mmHg 85%
    09:00 +9°C° 0.6 mm 7 m/S 745 mmHg 86%
    10:00 +9°C° 0.6 mm 7 m/S 745 mmHg 86%
    11:00 +10°C° 0.5 mm 8 m/S 745 mmHg 82%
    12:00 +10°C° 0.5 mm 9 m/S 745 mmHg 79%
    13:00 +11°C° 0.5 mm 10 m/S 745 mmHg 75%
    14:00 +11°C° 0.2 mm 9 m/S 745 mmHg 74%
    15:00 +10°C° 0.2 mm 9 m/S 745 mmHg 73%
    16:00 +10°C° 0.2 mm 9 m/S 745 mmHg 72%
    17:00 +10°C° 0 mm 8 m/S 745 mmHg 72%
    18:00 +9°C° 0 mm 6 m/S 745 mmHg 73%
    19:00 +9°C° 0 mm 5 m/S 745 mmHg 73%
    20:00 +8°C° 0 mm 5 m/S 746 mmHg 76%
    21:00 +7°C° 0 mm 5 m/S 746 mmHg 78%
    22:00 +7°C° 0 mm 5 m/S 746 mmHg 80%
    23:00 +6°C° 0 mm 4 m/S 746 mmHg 82%

    27 Mai, Montag

    Zeit Temperatur Niederschläge Wind Luftdruck Luftfeuchtigkeit
    00:00 +6°C° 0 mm 4 m/S 747 mmHg 84%
    01:00 +5°C° 0 mm 4 m/S 747 mmHg 86%
    02:00 +5°C° 0 mm 4 m/S 747 mmHg 89%
    03:00 +4°C° 0 mm 3 m/S 747 mmHg 91%
    04:00 +4°C° 0 mm 3 m/S 747 mmHg 94%
    05:00 +7°C° 0 mm 3 m/S 747 mmHg 88%
    06:00 +8°C° 0 mm 4 m/S 747 mmHg 82%
    07:00 +11°C° 0 mm 4 m/S 747 mmHg 77%
    08:00 +12°C° 0 mm 4 m/S 747 mmHg 73%
    09:00 +14°C° 0 mm 5 m/S 746 mmHg 69%
    10:00 +16°C° 0 mm 5 m/S 746 mmHg 65%
    11:00 +17°C° 0 mm 6 m/S 745 mmHg 65%
    12:00 +19°C° 0 mm 6 m/S 745 mmHg 66%
    13:00 +21°C° 0 mm 6 m/S 744 mmHg 67%
    14:00 +21°C° 0.6 mm 6 m/S 744 mmHg 69%
    15:00 +21°C° 0.6 mm 6 m/S 744 mmHg 72%
    16:00 +21°C° 0.6 mm 6 m/S 743 mmHg 75%
    17:00 +20°C° 0.7 mm 5 m/S 743 mmHg 77%
    18:00 +19°C° 0.7 mm 4 m/S 743 mmHg 80%
    19:00 +18°C° 0.7 mm 3 m/S 743 mmHg 83%
    20:00 +17°C° 0.4 mm 3 m/S 743 mmHg 86%
    21:00 +16°C° 0.4 mm 3 m/S 743 mmHg 89%
    22:00 +14°C° 0.4 mm 3 m/S 743 mmHg 92%
    23:00 +14°C° 0.2 mm 3 m/S 743 mmHg 93%

    28 Mai, Dienstag

    Zeit Temperatur Niederschläge Wind Luftdruck Luftfeuchtigkeit
    00:00 +13°C° 0.2 mm 3 m/S 743 mmHg 93%
    01:00 +13°C° 0.2 mm 3 m/S 742 mmHg 94%
    02:00 +14°C° 0.1 mm 2 m/S 742 mmHg 94%
    03:00 +14°C° 0.1 mm 2 m/S 742 mmHg 95%
    04:00 +14°C° 0.1 mm 2 m/S 742 mmHg 95%
    05:00 +14°C° 0.8 mm 2 m/S 742 mmHg 95%
    06:00 +15°C° 0.8 mm 2 m/S 742 mmHg 94%
    07:00 +16°C° 0.8 mm 1 m/S 742 mmHg 94%
    08:00 +16°C° 0.9 mm 2 m/S 742 mmHg 93%
    09:00 +16°C° 0.9 mm 3 m/S 742 mmHg 93%
    10:00 +14°C° 0.9 mm 4 m/S 742 mmHg 93%
    11:00 +14°C° 0.8 mm 4 m/S 742 mmHg 93%
    12:00 +13°C° 0.8 mm 4 m/S 742 mmHg 92%
    13:00 +13°C° 0.8 mm 4 m/S 742 mmHg 91%
    14:00 +14°C° 0 mm 4 m/S 742 mmHg 87%
    15:00 +15°C° 0 mm 4 m/S 743 mmHg 83%
    16:00 +17°C° 0 mm 4 m/S 743 mmHg 78%
    17:00 +16°C° 0 mm 3 m/S 743 mmHg 81%
    18:00 +14°C° 0 mm 3 m/S 743 mmHg 83%
    19:00 +14°C° 0 mm 2 m/S 744 mmHg 86%
    20:00 +13°C° 0 mm 2 m/S 744 mmHg 87%
    21:00 +12°C° 0 mm 2 m/S 744 mmHg 89%
    22:00 +11°C° 0 mm 1 m/S 745 mmHg 91%
    23:00 +11°C° 0 mm 1 m/S 745 mmHg 90%
    Mehr zeigen